Regional Weather Roundup
Issued by NWS Cleveland, OH

Home | Current Version | Previous Version | Graphics & Text | Print | Product List | Glossary On
Versions: 1 2 3 4 5 6 7 8 9 10 11 12 13 14 15 16 17 18 19 20 21 22 23 24 25 26 27 28 29 30 31 32 33 34 35 36 37 38 39 40 41 42 43 44 45 46 47 48 49 50
000
ASUS41 KCLE 032200
RWRCLE
OHIO REGIONAL WEATHER ROUNDUP
NATIONAL WEATHER SERVICE WILMINGTON, OH
600 PM EDT THU SEP 03 2015

NOTE: "FAIR" INDICATES FEW OR NO CLOUDS BELOW 12,000 FEET WITH NO
SIGNIFICANT WEATHER AND/OR OBSTRUCTIONS TO VISIBILITY.

OHZ001>008-015>018-024>027-034-035-043-044-032300-
   NORTHWEST OHIO

CITY           SKY/WX    TMP DP  RH WIND       PRES   REMARKS
DEFIANCE       MOSUNNY   89  66  46 W10G16    29.90S HX  91
FINDLAY        MOSUNNY   88  67  49 SW9       29.91S HX  91
TOLEDO EXPRESS MOSUNNY   88  66  48 W9        29.89S HX  90
TOLEDO EXEC    PTSUNNY   88  66  48 W9        29.90S HX  90
LIMA           MOSUNNY   86  67  52 W9        29.93S
$$

OHZ009>014-019>023-028>033-038-089-032300-
   NORTHEAST OHIO

CITY           SKY/WX    TMP DP  RH WIND       PRES   REMARKS
CLE-HOPKINS    PTSUNNY   82  69  64 N17       29.97R THUNDER
CLE-LAKEFRONT  MOSUNNY   80  69  69 N15       29.95R
CUY CO. ARPT   PTSUNNY   81  72  74 N14       29.98R FOG
LORAIN-ELYRIA  MOSUNNY   85  64  49 CALM      29.95R
ASHTABULA      MOSUNNY   81  69  67 NW15G25   29.99R
AKRON-CANTON   TSTM      70  65  84 NE5       30.00R
WOOSTER        NOT AVBL
MANSFIELD      CLOUDY    78  66  66 SE9       29.97F
YOUNGSTOWN     PTSUNNY   85  64  49 NW12      29.97R
$$

OHZ042-051>053-060>062-070>072-077>081-032300-
  SOUTHWEST OHIO

CITY           SKY/WX    TMP DP  RH WIND       PRES   REMARKS
CINC-COVINGTON MOSUNNY   90  63  40 W10       29.95F HX  91
CINC-LUNKEN    MOSUNNY   88  66  48 VRB3      29.93F HX  90
HAMILTON       SUNNY     91  64  40 W7        29.94F HX  92
DAYTON         NOT AVBL
WRIGHT-PAT AFB NOT AVBL
DAYTON GENERAL SUNNY     88  63  43 W7        29.95S
WILMINGTON     SUNNY     87  65  47 W9        29.95F
$$

OHZ036-037-039>041-045>050-054>059-063>069-073>076-082>088-032300-
  CENTRAL AND SOUTHEAST OHIO

CITY           SKY/WX    TMP DP  RH WIND       PRES   REMARKS
COLUMBUS       PTSUNNY   85  67  54 CALM      29.94S THUNDER
OSU AIRPORT    MOSUNNY   87  67  51 VRB7      29.94S HX  90
BOLTON FIELD   PTSUNNY   84  72  65 S6        29.95S
RICKENBACK AFB NOT AVBL
NEWARK         PTSUNNY   83  69  62 CALM      29.96S
MARION         PTSUNNY   82  72  71 S6        29.94F
LANCASTER      MOSUNNY   86  67  52 CALM      29.95S
ZANESVILLE     PTSUNNY   82  65  56 N10       29.99R
NEW PHILLY     CLOUDY    72  70  93 CALM      29.99R
$$



USA.gov is the U.S. government's official web portal to all federal, state and local government web resources and services.